GFSCGP_sfc_thetae_018.txt.gz
Theta_e
307 305 300 301 302 301 299 298 297 299 302 302 302 302 302 305 306 306 307 307 310 314 314 314 315 316 317 322 323 323 323 320 322 322 317 317 317 317 317 318 318 319 319 318
303 299 301 303 302 300 299 297 297 300 301 302 302 300 302 304 304 306 307 309 310 311 312 313 315 317 317 318 317 316 314 314 314 317 317 316 316 317 317 318 317 317 316 316
300 300 301 301 301 300 300 297 297 297 301 302 301 300 300 303 305 306 307 309 309 310 310 311 312 314 315 315 315 314 314 315 316 316 317 317 317 317 314 312 312 313 313 313
300 302 301 301 299 301 296 300 300 299 298 296 301 294 298 300 302 304 305 307 308 309 310 310 311 312 314 315 316 315 315 315 315 315 314 313 311 309 310 311 311 311 312 311
297 300 300 299 299 302 299 302 300 299 299 298 298 296 298 301 299 301 305 307 308 309 309 310 311 312 313 315 316 316 315 314 314 314 312 312 310 311 311 311 310 311 310 309
301 305 304 302 302 302 303 300 300 301 300 293 296 295 296 299 298 301 305 307 309 309 309 309 311 312 313 315 316 315 313 312 313 313 312 311 310 308 307 308 307 306 306 307
300 301 304 305 301 304 303 299 294 292 292 291 296 294 296 299 302 303 304 306 308 310 310 310 310 311 312 313 314 313 312 311 312 312 310 308 309 309 308 307 305 304 304 304
295 293 301 304 301 299 299 299 293 284 288 291 295 291 296 302 304 305 305 306 307 308 309 309 309 311 311 312 312 312 312 310 309 309 309 309 309 309 307 306 305 304 304 304
295 294 302 302 303 302 299 296 299 292 287 290 294 296 300 302 302 303 303 304 305 307 307 308 310 311 312 312 312 312 312 311 311 310 310 310 309 308 305 305 304 303 304 303
299 293 299 301 303 304 301 301 295 297 286 282 290 291 294 298 301 301 303 303 305 307 308 309 310 311 311 312 313 313 312 310 311 310 309 307 307 306 304 302 301 301 302 303
300 297 295 299 298 297 299 298 296 296 294 287 284 289 301 299 301 300 303 303 305 306 308 308 309 310 310 312 311 310 310 310 309 308 307 306 304 302 301 300 300 301 302 301
301 298 292 293 299 302 300 297 295 291 285 291 289 289 301 302 302 302 303 303 305 307 307 308 309 309 309 309 308 307 307 306 306 306 304 303 302 300 300 299 299 300 299 299
302 296 289 290 296 299 297 298 297 295 293 289 287 290 300 302 302 303 303 303 305 305 306 307 308 307 306 306 305 304 304 304 304 302 302 301 300 299 299 299 299 299 299 298
302 297 292 287 290 294 292 294 295 294 289 290 291 293 298 299 300 302 302 304 304 305 305 306 306 305 305 303 303 303 303 302 301 301 301 300 300 300 296 298 298 297 297 296
303 293 295 295 295 295 294 293 294 292 294 289 292 293 297 299 300 301 303 303 303 303 303 303 302 299 300 301 302 301 300 300 301 300 299 298 297 296 297 297 297 297 296 295
301 294 293 290 294 294 292 294 294 294 295 295 295 294 300 301 302 301 301 302 301 301 300 300 298 297 298 300 300 298 298 299 299 297 297 296 296 296 296 295 294 293 292 292
298 296 291 288 291 291 288 292 293 295 296 295 291 296 299 299 299 300 301 301 300 298 298 298 297 297 300 300 298 298 297 298 297 296 295 295 295 293 293 292 291 290 290 290
293 293 290 288 288 284 292 298 297 295 296 297 297 298 299 300 302 303 302 299 296 295 296 297 298 299 300 299 298 298 297 296 296 295 294 293 292 291 291 290 289 289 290 289
299 295 288 285 286 290 293 294 294 293 293 299 297 299 301 302 302 300 298 295 295 298 297 298 299 300 300 298 298 298 297 296 295 293 293 292 292 290 289 288 288 289 288 288
295 295 294 287 283 282 292 296 298 298 289 299 300 299 297 298 293 295 294 296 298 298 298 297 298 300 299 298 298 296 295 295 293 293 293 293 291 289 288 289 288 289 289 287
287 288 287 287 285 289 297 297 299 287 291 299 299 296 296 294 293 294 296 297 298 298 298 298 298 298 298 298 297 295 294 292 293 293 293 292 290 289 289 289 289 289 288 287
290 289 286 286 282 282 298 297 291 298 301 301 300 297 294 294 295 295 296 296 297 297 297 297 296 296 297 298 297 295 293 294 294 294 293 291 290 289 288 289 289 288 287 285
290 295 293 292 293 301 302 301 303 304 301 298 296 295 297 296 295 295 295 296 296 296 296 297 295 295 296 297 297 294 294 295 294 293 292 290 289 289 289 288 288 286 285 283
297 299 294 294 297 299 302 304 304 302 296 296 297 297 296 294 294 294 294 295 295 296 295 295 294 293 293 295 295 295 294 294 293 291 290 290 289 288 289 288 286 285 283 281
299 299 296 296 299 300 301 301 300 297 297 296 296 296 294 293 293 293 293 293 293 293 294 293 292 291 291 293 292 293 292 291 289 290 289 289 288 288 287 286 285 284 283 281
300 298 295 292 300 298 296 298 297 295 294 295 293 292 293 293 291 292 291 292 292 292 293 292 291 291 291 290 290 290 289 289 288 287 288 288 288 287 285 284 284 282 280 279

GFSCGP_sfc_thetae_021.txt.gz
Theta_e
309 306 303 303 304 303 301 300 299 302 304 303 303 303 305 308 309 309 310 310 311 314 320 319 319 320 323 326 327 329 328 325 324 322 319 318 318 319 319 320 321 321 320 319
304 302 304 305 304 302 302 300 300 302 304 303 303 303 305 307 307 310 310 312 313 314 314 316 318 320 320 320 321 320 319 318 318 319 318 319 318 318 319 320 319 318 317 316
303 303 304 304 303 302 302 300 300 299 303 305 303 301 302 306 308 309 310 311 312 312 312 313 315 317 319 318 318 318 318 318 318 318 318 318 318 318 316 316 316 316 316 315
303 305 303 303 301 303 299 303 302 301 300 297 304 296 301 304 304 306 308 310 310 311 312 313 314 315 317 318 319 318 317 317 317 318 315 315 313 312 314 315 316 315 315 314
301 302 302 301 301 304 301 305 302 302 301 300 300 297 300 303 301 304 307 309 310 311 312 313 314 315 316 318 319 318 317 316 316 316 315 314 313 314 314 313 312 312 311 310
304 307 306 304 305 304 306 304 303 303 302 294 299 297 298 301 302 304 307 309 310 312 312 312 314 314 316 318 318 317 316 315 316 316 316 314 312 311 309 309 308 307 308 308
302 303 306 307 303 306 305 302 295 293 294 293 299 296 299 303 304 306 306 308 310 312 312 312 312 313 314 315 316 316 315 314 315 314 313 312 311 310 309 308 307 306 305 305
298 295 303 306 303 300 301 301 295 286 290 293 298 292 299 305 307 307 307 308 309 310 311 311 312 313 314 314 315 315 315 314 314 314 313 313 313 310 309 308 306 304 303 304
298 297 304 305 306 305 301 298 301 295 293 292 295 299 303 305 305 305 306 307 308 308 309 310 312 313 313 314 314 314 314 313 312 313 313 312 310 309 307 306 304 303 304 303
301 296 301 303 305 306 303 304 297 298 287 284 291 293 295 300 302 305 304 305 307 308 309 311 311 312 312 313 313 314 313 311 311 310 309 309 308 307 305 303 302 302 303 304
302 299 298 300 300 298 301 300 298 297 295 288 286 291 302 301 302 302 304 306 307 308 309 309 310 310 311 312 311 310 310 309 308 308 307 306 305 304 303 302 301 302 302 301
303 300 294 295 301 304 302 299 298 292 288 293 291 290 303 303 304 304 305 306 307 308 308 308 308 309 309 309 309 308 308 306 306 305 304 303 303 303 302 301 301 301 299 300
304 299 292 294 298 302 298 300 298 296 295 289 289 291 302 304 303 304 304 306 306 307 307 307 307 307 306 307 307 305 305 304 303 302 302 302 302 302 300 300 300 300 299 299
304 299 294 290 293 297 294 296 297 296 291 291 292 294 299 301 301 303 304 305 306 306 304 305 306 306 306 305 303 303 303 302 301 301 300 300 300 298 298 299 299 297 297 296
304 295 297 297 297 296 295 295 296 294 295 291 294 295 299 301 301 303 305 305 304 304 304 305 303 303 302 301 302 303 301 301 300 299 299 299 298 297 297 297 296 295 295 294
303 296 296 293 296 296 293 295 296 296 296 296 296 295 302 303 304 303 303 303 302 303 303 301 300 300 299 300 301 300 300 299 299 298 298 298 297 296 295 295 294 293 292 292
300 298 293 289 295 293 289 294 295 296 297 296 292 297 302 301 301 300 300 301 302 301 299 297 298 299 300 301 301 299 299 299 298 297 297 296 295 294 294 293 292 291 291 291
299 296 293 289 289 284 296 300 299 297 297 299 299 300 301 301 302 303 302 300 300 299 299 300 299 299 300 301 301 300 299 298 297 297 296 296 294 293 293 291 291 290 291 290
302 298 290 287 288 292 295 296 296 294 294 300 299 301 302 302 302 301 301 301 301 301 300 300 300 299 299 300 301 299 298 298 296 295 295 295 293 293 292 290 290 290 290 290
298 300 296 289 285 283 294 299 300 300 290 302 301 300 300 300 293 296 298 300 300 300 300 299 299 299 299 299 299 298 297 297 295 294 294 294 293 292 291 290 290 290 290 289
289 290 289 288 286 291 298 300 302 289 292 302 301 299 297 294 296 298 299 299 300 299 299 299 299 298 298 298 298 296 295 295 295 295 295 294 294 292 291 290 291 290 289 289
290 289 287 289 285 283 301 299 293 300 303 301 301 298 295 297 298 298 298 297 297 297 297 298 297 297 297 297 296 294 294 295 297 296 295 295 293 292 291 290 290 289 288 287
292 296 294 294 294 303 303 301 305 304 303 301 299 298 298 297 296 296 296 296 296 296 296 297 295 295 295 295 294 292 294 295 295 294 294 293 293 291 291 290 289 287 287 286
300 302 297 297 299 300 302 304 304 304 301 299 298 299 298 296 295 294 295 294 294 294 293 294 294 293 292 293 293 293 293 293 291 290 291 292 291 290 290 289 288 287 286 283
301 301 298 298 301 301 303 301 300 300 300 300 298 297 296 294 294 293 292 292 292 292 293 293 292 292 292 293 292 293 292 291 289 289 289 289 290 289 288 288 287 286 285 283
302 299 297 294 301 298 298 299 300 299 297 297 295 294 295 295 293 293 292 293 292 292 292 292 292 292 292 292 292 291 291 290 288 287 287 288 289 288 286 285 285 283 282 280

GFSCGP_sfc_thetae_024.txt.gz
Theta_e
309 304 301 302 303 302 301 299 298 302 305 302 301 302 305 307 309 309 311 312 312 314 316 318 320 322 324 327 326 326 324 324 322 321 318 317 317 318 318 319 321 319 319 316
303 300 304 305 304 302 301 300 299 303 304 302 302 302 305 306 307 309 310 311 312 312 314 316 318 319 319 319 320 319 319 319 318 317 317 317 317 318 318 319 316 318 316 315
301 303 305 303 302 301 302 299 300 299 302 304 302 300 301 305 307 309 310 311 311 311 311 314 316 317 318 318 318 317 317 318 318 318 317 316 316 316 314 314 314 316 315 314
303 305 303 302 301 302 298 304 302 300 299 294 303 292 299 302 303 306 307 309 309 310 312 313 314 315 317 318 319 318 318 317 317 317 315 315 313 311 312 313 312 312 314 312
301 302 302 301 302 303 300 304 302 301 299 299 299 296 299 302 300 303 306 308 310 311 312 312 313 315 316 319 319 318 317 316 317 316 316 314 311 311 311 310 310 308 309 308
304 307 306 304 305 304 305 304 303 302 300 294 298 297 295 299 301 304 307 308 310 311 312 312 314 315 316 319 318 318 316 315 317 315 314 312 310 309 308 308 306 306 305 305
302 303 306 306 303 306 305 300 295 293 293 292 300 295 298 303 305 306 306 307 309 311 312 312 312 312 314 315 316 316 315 314 315 315 314 313 311 311 308 306 304 302 301 301
297 295 302 306 303 300 301 299 296 286 288 291 298 292 297 305 306 307 307 308 309 310 312 312 313 313 313 315 314 315 314 312 312 313 311 311 310 308 306 305 302 301 300 300
297 297 304 305 305 304 300 298 301 295 293 291 292 298 302 304 304 305 306 307 308 309 310 310 312 313 313 313 313 313 312 311 311 310 310 309 308 307 304 303 301 300 300 301
300 296 301 302 304 306 301 302 295 299 287 284 290 292 294 299 301 304 304 304 307 309 309 310 310 311 311 311 312 313 310 308 308 308 307 305 305 304 303 301 300 300 300 300
302 299 298 301 300 297 299 298 298 297 295 287 285 289 300 300 302 302 303 305 306 307 308 309 309 310 310 311 311 309 307 306 306 304 304 303 302 302 302 301 300 300 299 299
301 299 296 295 301 303 301 298 298 294 289 294 292 289 302 302 304 304 304 305 307 307 308 307 308 308 308 308 307 306 306 305 303 302 301 301 301 301 299 299 298 299 298 299
303 300 293 293 298 302 297 299 298 297 295 289 286 289 303 303 303 305 303 305 306 307 306 306 307 306 305 306 305 304 304 303 302 301 299 299 299 298 297 297 298 298 297 296
304 299 295 291 293 296 293 295 297 296 291 291 291 293 298 300 301 302 303 305 305 305 305 305 304 304 304 304 302 302 302 302 301 299 298 298 298 297 296 297 297 296 296 294
304 296 297 297 296 296 295 294 295 293 294 289 293 293 297 300 301 302 303 303 303 303 304 303 302 302 301 301 301 301 302 300 300 298 297 297 298 297 296 296 295 295 294 292
304 297 297 293 296 295 292 294 295 295 295 295 295 294 301 303 303 302 302 302 302 302 302 301 300 300 300 300 300 301 300 299 300 298 297 297 297 296 295 295 294 293 291 290
301 299 294 289 293 292 290 295 295 296 297 296 292 297 301 300 300 300 300 301 300 300 299 299 300 300 299 299 299 298 299 300 298 297 297 297 297 295 294 293 293 290 289 289
299 296 293 288 289 283 295 299 299 296 297 298 298 299 300 300 301 301 302 300 299 299 299 300 300 299 299 298 298 299 299 299 298 297 296 296 296 294 293 293 291 289 288 288
303 298 290 288 288 291 294 297 296 294 293 300 299 300 300 301 300 299 301 300 299 300 300 299 299 299 299 298 298 297 296 296 296 296 295 295 295 293 293 291 289 288 288 287
300 302 295 289 283 282 295 299 302 300 289 301 301 299 298 297 290 294 299 299 299 299 299 298 299 298 298 297 297 295 294 294 294 295 295 295 295 293 292 291 289 288 288 288
289 291 289 288 285 290 298 301 302 288 291 301 300 299 297 294 295 298 299 299 298 297 297 297 296 296 295 296 295 292 292 291 293 294 295 295 295 293 292 291 290 289 287 285
289 288 286 288 286 283 301 300 292 299 303 301 300 299 297 297 298 298 296 296 296 295 294 294 293 293 294 294 293 291 290 292 293 293 293 293 294 293 292 289 288 288 285 284
293 297 295 293 293 302 303 302 304 304 300 299 299 299 298 297 295 295 294 294 293 293 293 293 292 292 293 293 293 291 291 292 292 291 290 290 292 292 291 289 287 284 284 281
299 302 299 298 299 300 302 304 303 301 299 300 300 299 297 295 294 294 293 292 292 292 292 292 291 291 291 293 293 292 292 292 290 289 288 289 289 289 289 288 286 283 282 280
301 301 299 298 301 302 302 302 301 301 301 300 299 297 295 294 293 292 292 292 292 292 292 292 292 291 291 292 292 292 291 291 289 288 287 286 287 287 286 285 284 283 282 280
301 298 296 295 302 301 300 301 301 299 298 297 295 294 295 293 292 292 291 292 291 290 291 291 291 291 291 291 291 291 291 290 287 284 284 284 284 285 284 283 283 284 282 281

GFSCGP_sfc_thetae_030.txt.gz
Theta_e
302 296 291 293 294 296 295 292 292 292 296 294 292 293 296 298 302 303 304 305 306 307 309 311 311 311 311 311 312 313 313 311 310 309 309 308 307 308 309 309 310 309 309 309
296 292 297 299 300 298 297 294 292 295 299 295 292 293 296 299 301 304 304 304 305 306 307 309 309 308 309 310 309 309 309 308 308 308 307 307 306 308 307 307 307 306 305 305
294 296 301 301 298 297 296 294 293 293 295 295 294 292 296 299 301 303 304 306 307 306 306 307 308 308 307 306 307 308 308 308 307 308 307 307 306 305 304 304 303 303 303 302
296 300 300 299 297 296 293 299 297 295 291 286 292 283 290 295 297 300 302 302 304 306 307 307 306 306 306 305 306 307 307 308 308 308 307 305 303 302 302 302 301 301 301 301
295 297 298 297 297 298 296 299 297 296 291 289 290 286 288 297 295 297 298 301 303 304 306 305 306 307 307 307 305 306 308 308 308 308 306 305 303 303 302 301 299 299 299 300
297 301 299 298 300 300 300 298 297 295 292 283 292 289 287 291 295 298 301 301 302 302 303 305 306 307 306 306 305 305 306 306 307 306 305 303 302 301 299 298 296 297 297 297
297 298 300 301 297 300 297 293 283 283 281 282 295 291 291 297 301 302 300 300 301 301 302 304 305 305 305 304 304 306 306 305 306 305 303 302 301 299 299 298 295 295 294 294
291 288 296 301 297 294 294 293 282 280 279 282 292 287 290 300 303 303 303 302 302 301 302 302 302 302 303 303 303 304 304 304 304 303 301 300 301 299 297 296 295 294 293 294
291 291 298 299 299 298 294 289 294 287 283 280 286 290 296 299 301 303 302 305 303 302 301 301 302 302 302 303 303 301 301 302 301 300 298 297 298 297 295 295 295 294 294 296
296 289 297 299 300 300 295 297 288 285 279 279 284 287 290 295 297 300 299 299 300 300 300 301 301 302 302 302 301 300 300 298 297 297 296 296 296 296 295 294 294 294 294 294
296 293 291 297 293 291 292 291 291 290 284 279 277 282 293 296 299 298 298 300 299 300 300 300 299 300 299 300 299 298 298 297 296 295 295 295 295 295 294 293 293 293 293 293
296 291 283 290 296 297 294 293 292 282 283 281 280 282 296 297 297 298 299 299 299 298 298 298 298 298 298 297 297 298 297 296 295 295 295 294 295 294 293 292 292 292 292 293
296 289 282 287 292 296 291 294 295 290 284 282 275 280 295 298 297 298 297 299 298 297 297 297 297 297 297 297 297 296 296 295 295 295 293 293 292 293 292 291 292 293 292 292
300 293 287 282 287 289 286 290 292 289 280 282 282 286 291 295 295 295 296 297 296 296 296 297 296 296 296 296 295 294 295 295 295 294 292 292 292 291 292 291 292 293 293 293
297 288 291 291 291 290 289 288 289 288 288 283 286 287 292 294 294 295 297 297 297 296 296 296 296 295 295 295 294 293 293 294 294 293 293 292 293 292 293 291 292 293 294 293
297 286 286 285 291 290 286 289 290 290 290 289 289 289 295 296 296 296 296 295 295 295 295 295 295 296 296 294 292 292 292 292 293 293 293 294 294 294 292 292 293 293 292 292
292 285 282 279 286 285 280 288 290 290 291 290 285 290 293 293 294 294 293 294 293 294 295 294 294 294 293 291 291 290 290 291 291 292 292 293 292 292 292 292 292 292 291 287
288 285 280 276 277 270 287 294 294 292 293 294 293 293 293 293 294 294 294 293 292 293 294 294 292 291 290 290 289 289 289 289 289 290 291 292 291 291 291 291 290 288 287 287
294 283 279 274 277 282 288 293 291 289 290 295 294 293 293 294 294 292 295 294 293 293 293 289 288 289 288 288 289 288 287 287 288 289 289 290 290 290 290 288 288 287 288 287
293 286 280 278 272 270 284 293 297 294 283 296 295 293 292 291 281 286 293 294 294 290 288 287 287 287 287 287 287 286 285 285 287 288 289 289 290 289 288 287 289 288 288 284
280 278 279 271 270 280 289 296 297 282 284 295 295 293 292 288 288 291 294 292 290 287 287 288 286 286 286 287 287 285 285 286 288 288 288 288 288 288 288 288 286 286 283 282
282 280 277 277 271 275 294 295 287 290 294 295 294 294 292 292 293 293 291 289 288 287 287 287 286 286 286 287 287 285 285 287 288 287 286 285 285 286 288 287 286 283 280 279
284 286 283 285 284 291 296 295 296 298 294 294 294 294 295 294 291 289 287 287 287 286 285 286 285 286 287 287 287 286 286 287 287 285 284 283 284 285 284 284 281 280 279 274
292 296 287 288 293 294 296 297 297 297 295 298 298 297 295 290 289 286 286 285 285 285 285 285 285 285 285 287 287 286 287 287 285 283 283 283 281 282 282 281 281 279 274 272
290 294 291 288 293 296 296 295 296 296 297 299 299 295 290 288 286 286 285 284 284 285 285 285 285 285 286 287 286 287 286 286 284 283 283 281 280 280 280 280 279 278 277 276
295 293 286 286 294 294 294 296 297 297 298 298 292 289 288 287 286 285 284 284 284 284 285 285 285 285 286 286 286 286 287 286 283 283 282 279 278 277 279 279 279 282 282 283

GFSCGP_sfc_thetae_036.txt.gz
Theta_e
298 293 289 292 291 292 291 288 287 288 292 292 292 292 295 298 300 300 300 301 302 303 305 307 309 311 313 314 318 320 320 320 315 312 308 305 304 302 302 301 302 303 302 301
295 290 293 297 296 294 292 289 288 291 294 294 292 291 295 298 298 299 299 299 300 302 304 306 307 309 311 312 312 310 307 307 307 306 304 304 302 301 301 300 300 300 300 299
291 293 298 297 295 295 293 290 289 290 292 293 291 289 292 297 300 302 301 301 301 302 303 306 307 305 304 303 303 304 305 305 306 306 304 303 303 301 300 299 298 298 299 298
294 298 296 295 294 294 290 295 293 291 288 285 289 283 288 293 296 298 300 300 300 302 304 305 303 302 302 303 303 304 305 305 305 305 303 301 300 299 299 298 297 296 297 297
292 294 294 294 293 294 292 296 294 292 288 286 287 285 286 294 294 296 298 299 300 302 303 303 303 304 302 302 302 302 304 305 305 305 303 302 300 299 298 297 296 296 296 297
294 297 296 294 296 296 296 295 293 291 288 282 287 285 284 289 293 296 298 300 301 302 302 303 304 304 302 302 301 302 304 303 304 303 303 302 300 297 296 295 295 295 294 294
294 294 296 297 294 295 295 290 282 281 280 281 289 286 287 292 295 298 298 299 301 302 302 302 304 303 303 304 304 303 302 302 302 301 301 300 299 298 297 296 294 293 293 292
288 286 293 297 293 291 291 290 283 281 278 281 289 284 289 295 298 300 301 300 300 300 302 302 305 305 302 302 301 301 302 301 300 300 299 299 298 296 296 295 294 293 292 292
288 288 295 295 296 295 291 286 290 284 282 278 283 288 293 295 296 298 298 299 299 300 301 299 300 300 300 299 299 300 300 300 299 298 298 298 297 296 295 294 292 292 292 294
293 287 293 294 296 295 291 294 286 283 277 278 280 283 285 291 294 296 297 297 298 297 297 297 298 298 299 297 297 298 298 297 297 295 294 294 294 294 294 293 292 292 292 292
293 289 288 293 289 289 290 288 287 287 282 278 274 281 290 294 296 296 296 298 296 296 295 295 296 296 296 295 296 296 295 295 294 293 293 292 292 293 293 292 292 292 292 291
293 288 283 287 292 294 291 289 287 279 280 279 278 280 291 293 296 297 295 296 295 295 295 294 295 295 295 295 295 295 295 296 293 292 292 291 291 291 291 291 292 291 290 290
293 287 281 285 288 291 288 290 289 285 283 281 275 279 293 294 294 295 293 293 294 294 294 294 294 294 294 296 295 295 293 293 292 292 291 290 290 290 289 289 290 290 289 290
296 289 285 282 283 287 284 288 288 287 279 281 280 282 288 291 292 292 293 293 293 293 294 294 294 294 295 296 293 290 290 290 290 290 290 290 289 289 289 289 289 289 290 289
292 286 287 286 287 287 285 285 288 286 285 282 283 284 287 292 291 292 293 293 293 293 293 294 293 293 294 290 289 289 289 289 289 290 290 289 290 289 289 289 289 289 290 290
293 284 285 284 286 286 284 286 286 286 285 286 285 285 292 292 293 293 293 293 292 293 293 293 293 291 290 289 288 288 288 288 288 289 289 290 290 290 289 288 288 288 288 288
288 284 281 279 282 281 277 284 285 286 288 287 283 287 291 290 292 292 292 292 292 292 292 293 290 288 288 287 288 286 287 287 286 288 289 289 289 288 288 288 287 285 284 285
285 282 277 274 276 270 283 289 289 288 289 289 289 290 292 292 292 293 293 292 291 291 291 289 287 287 287 286 285 286 286 285 286 287 287 287 287 286 287 286 286 284 287 288
289 282 276 274 275 280 284 288 289 287 287 292 290 290 291 292 292 291 294 292 290 291 291 287 287 286 285 285 285 285 284 284 285 286 286 286 286 285 285 284 284 287 287 286
288 283 280 274 271 269 282 289 293 291 282 291 292 290 290 291 283 289 292 293 292 290 286 285 285 285 284 284 284 284 283 283 284 285 285 286 285 284 283 283 286 287 287 284
282 279 275 269 270 278 286 291 293 282 283 292 292 291 290 289 290 290 292 293 288 287 286 285 284 284 284 285 284 283 283 283 285 285 285 285 284 283 283 285 287 286 284 282
283 281 281 275 270 276 290 292 286 290 289 293 292 292 292 290 290 292 289 286 286 285 285 285 284 284 284 285 284 283 282 284 285 285 284 284 285 283 283 284 286 283 280 279
282 284 281 283 283 289 290 291 293 293 292 293 293 293 293 292 293 290 286 287 285 285 284 284 284 284 285 285 284 283 284 285 284 283 283 284 285 283 282 282 282 281 279 275
288 289 283 285 288 290 292 293 296 295 294 294 295 295 295 294 290 288 286 284 284 284 284 284 284 283 283 284 285 284 284 284 283 283 285 285 284 283 281 281 282 281 276 272
288 289 287 285 290 290 295 295 295 295 295 296 296 295 293 290 288 286 284 284 284 284 284 284 283 283 283 284 283 283 283 283 283 285 284 284 283 282 279 280 280 280 279 277
290 289 285 284 291 291 291 294 295 295 295 295 291 289 289 288 286 286 284 285 284 283 284 284 284 283 283 283 282 282 283 283 283 283 283 284 283 281 279 279 279 282 281 282

GFSCGP_sfc_thetae_039.txt.gz
Theta_e
302 299 295 296 297 295 295 294 293 295 296 298 296 297 299 303 306 306 306 308 308 308 311 316 318 322 325 327 327 322 322 321 317 313 312 309 310 308 308 309 309 309 308 308
299 295 298 300 298 297 295 294 294 295 297 299 297 297 300 302 303 305 306 307 308 311 313 314 316 319 323 324 325 325 320 319 317 315 314 314 311 310 309 308 308 308 307 307
297 298 300 300 298 298 296 295 294 294 297 297 297 295 298 301 303 304 305 307 310 311 311 311 312 314 316 318 319 322 320 317 317 315 313 311 311 309 307 307 307 306 306 306
299 300 298 297 297 298 295 298 296 294 294 292 295 290 295 299 300 303 304 306 308 309 310 309 308 308 310 311 312 313 313 313 313 313 313 312 312 310 309 308 306 306 305 305
297 298 297 297 297 298 296 299 297 295 294 293 293 292 293 298 299 301 304 305 306 308 309 308 308 309 310 311 311 312 312 312 312 313 313 312 309 308 307 306 305 306 306 304
298 302 300 299 299 299 300 299 297 296 294 289 291 291 291 295 299 302 304 305 306 307 308 308 309 309 309 310 311 312 311 310 311 312 311 311 309 307 306 306 306 305 304 303
297 297 300 301 298 300 299 296 289 288 288 287 292 291 295 297 299 305 304 305 306 308 308 308 308 308 309 309 309 310 311 309 309 310 310 310 309 308 307 306 305 303 303 303
292 289 297 300 298 297 296 296 291 283 285 288 291 289 295 299 301 306 306 306 307 307 308 308 309 309 310 310 310 309 309 307 307 308 307 308 307 308 306 304 303 303 302 302
292 291 299 299 300 299 295 292 295 288 285 285 289 293 297 299 299 302 304 304 306 307 307 308 309 309 308 307 307 308 308 307 306 305 306 306 305 304 303 303 303 302 302 300
296 291 296 297 300 299 297 297 291 290 282 281 285 287 291 295 297 300 302 304 305 305 304 305 305 305 305 305 305 306 306 304 304 303 302 301 301 300 301 301 301 301 301 300
297 295 293 296 294 294 295 293 291 291 288 283 281 286 296 298 300 300 303 304 304 303 302 302 302 302 302 302 303 303 302 300 300 300 300 300 300 299 300 299 299 299 299 298
296 293 289 292 296 298 296 294 293 287 284 285 285 287 295 298 300 301 302 302 302 301 300 300 300 300 301 301 302 300 300 299 299 299 299 298 298 298 297 297 297 298 297 298
297 292 287 289 293 295 294 294 291 289 288 285 286 287 295 297 298 301 302 300 299 299 299 299 299 299 300 298 298 297 298 297 297 297 297 297 297 296 296 296 297 296 296 295
299 291 290 288 289 292 289 292 291 292 287 286 287 289 292 296 297 297 298 299 298 298 298 299 299 299 299 298 296 295 295 296 296 296 296 296 296 296 296 296 296 295 295 294
297 291 291 289 290 290 289 289 291 290 290 288 289 289 293 295 298 297 298 297 297 297 297 298 297 297 297 295 294 295 295 295 295 294 295 295 296 296 295 294 295 294 294 293
295 290 290 288 289 288 288 289 289 290 290 290 289 289 295 296 298 296 296 296 296 297 297 297 296 295 293 293 293 293 293 293 293 293 294 295 295 294 293 293 293 293 292 291
292 289 287 284 284 284 283 288 290 289 291 292 288 294 296 295 296 297 296 297 297 297 296 296 294 293 293 293 292 292 292 292 291 291 293 293 293 292 292 292 291 291 291 291
288 286 282 282 280 279 289 292 292 290 291 292 293 294 296 296 296 298 299 298 297 296 296 295 293 292 292 292 291 291 291 291 290 291 291 291 291 291 290 290 289 290 290 288
291 286 281 283 281 284 287 288 291 290 291 294 294 294 294 295 297 297 298 299 298 296 296 294 293 292 291 290 290 290 290 289 289 290 290 290 290 289 289 288 289 288 288 288
289 288 288 281 281 279 287 291 296 295 288 295 296 294 293 295 292 297 298 297 295 296 292 290 290 290 290 289 290 289 289 288 289 289 290 290 290 288 288 288 288 288 288 287
285 284 285 276 283 284 289 292 296 286 289 294 296 295 294 295 298 296 297 296 295 291 289 289 289 289 289 289 289 288 288 288 289 290 290 289 289 288 288 288 288 289 287 286
287 284 283 279 280 281 292 295 291 296 295 296 296 296 296 295 294 295 295 290 288 288 288 289 289 288 289 289 289 288 288 289 289 289 289 289 289 288 286 287 287 287 285 284
286 290 288 287 289 294 294 296 298 297 296 297 297 298 298 295 295 292 289 288 288 287 287 288 288 287 288 288 289 287 289 288 288 288 288 288 288 287 286 285 285 285 285 283
291 291 289 289 293 292 294 297 297 299 298 299 299 298 297 296 294 289 287 286 285 287 288 287 287 286 286 287 287 288 287 287 287 287 287 288 286 286 286 285 285 284 284 283
292 292 290 289 293 294 295 297 299 298 299 299 298 298 297 293 289 287 285 286 286 287 287 287 286 286 286 287 287 287 287 287 286 286 287 287 286 285 285 285 284 284 285 284
292 291 289 289 294 294 295 297 299 298 298 298 295 291 291 289 287 288 287 288 287 286 286 286 286 286 286 286 285 286 287 286 286 285 286 286 286 286 285 284 284 284 283 282